Alexandroupolis, Greece

3:01 AM EET on February 20, 2017 (GMT +0200)
Dimokritos

Weather History for LGAL - November, 2012

Change the Weather History Date:

Tuesday, November 6, 2012

  Actual Average Record
Temperature  
Mean Temperature 68 °F -  
Max Temperature 73 °F 57 °F 73 °F (2010)
Min Temperature 63 °F 43 °F 35 °F (1997)
Cooling Degree Days 3    
Growing Degree Days 18 (Base 50)    
Moisture  
Dew Point 62 °F    
Average Humidity 82    
Maximum Humidity 94    
Minimum Humidity 62    
Precipitation  
Precipitation 0.00 in 0.10 in - ()
Sea Level Pressure  
Sea Level Pressure 29.88 in    
Wind  
Wind Speed 9 mph ()    
Max Wind Speed 16 mph    
Max Gust Speed 24 mph    
Visibility 6.2 miles    
Events      
Averages and records for this station are not official NWS values.
T = Trace of Precipitation, MM = Missing Value Source: Averaged Metar Reports

Daily Weather History Graph

Daily Weather History Graph

Search for Another Location

Airport or City:

Trip Planner

Search our weather history database for the weather conditions in past years. The results will help you decide how hot, cold, wet, or windy it might be!

Date:

Astronomy

Nov. 06, 2012 Rise Set
Actual Time 6:52 AM EET 5:06 PM EET
Civil Twilight 6:24 AM EET 5:35 PM EET
Nautical Twilight 5:51 AM EET 6:07 PM EET
Astronomical Twilight 5:19 AM EET 6:39 PM EET
Moon 11:25 PM EET (11/6) 12:34 PM EET (11/6)
Length of Visible Light 11h 11m
Length of Day
10h 13m
Waning Gibbous, 56% of the Moon is Illuminated
Nov 6
Waning Gibbous
Nov 7
Last Quarter
Nov 14
New
Nov 20
First Quarter
Nov 28
Full

Hourly Weather History & Observations

Time (EET) Temp. Dew Point Humidity Pressure Visibility Wind Dir Wind Speed Gust Speed Precip Events Conditions
12:20 AM 64.4 °F 60.8 °F 88% 29.86 in 6.2 mi WSW 9.2 mph - N/A   Scattered Clouds
12:50 AM 64.4 °F 60.8 °F 88% 29.86 in 6.2 mi SW 9.2 mph - N/A   Scattered Clouds
1:20 AM 64.4 °F 60.8 °F 88% 29.86 in 6.2 mi WSW 9.2 mph - N/A   Scattered Clouds
1:50 AM 62.6 °F 60.8 °F 94% 29.86 in 6.2 mi SSW 4.6 mph - N/A   Scattered Clouds
2:00 AM 63 °F 60 °F 88% 29.87 in 6 mi SSW 4.6 mph - -   Partly Cloudy
2:20 AM 62.6 °F 60.8 °F 94% 29.86 in 6.2 mi SW 5.8 mph - N/A   Scattered Clouds
2:50 AM 62.6 °F 60.8 °F 94% 29.86 in 6.2 mi SSW 9.2 mph - N/A   Partly Cloudy
3:20 AM 62.6 °F 60.8 °F 94% 29.86 in 6.2 mi SSW 9.2 mph - N/A   Partly Cloudy
3:50 AM 62.6 °F 60.8 °F 94% 29.86 in 6.2 mi SW 10.4 mph - N/A   Partly Cloudy
4:20 AM 62.6 °F 60.8 °F 94% 29.86 in 6.2 mi SW 10.4 mph - N/A   Partly Cloudy
4:50 AM 64.4 °F 60.8 °F 88% 29.83 in 6.2 mi WSW 9.2 mph - N/A   Partly Cloudy
5:20 AM 64.4 °F 60.8 °F 88% 29.83 in 6.2 mi SW 9.2 mph - N/A   Scattered Clouds
5:50 AM 64.4 °F 60.8 °F 88% 29.83 in 6.2 mi SW 11.5 mph - N/A   Scattered Clouds
6:20 AM 64.4 °F 60.8 °F 88% 29.83 in 6.2 mi SW 11.5 mph - N/A   Scattered Clouds
6:50 AM 64.4 °F 60.8 °F 88% 29.83 in 6.2 mi WSW 5.8 mph - N/A   Scattered Clouds
7:20 AM 64.4 °F 60.8 °F 88% 29.83 in 6.2 mi SW 11.5 mph - N/A   Scattered Clouds
7:50 AM 68.0 °F 66.2 °F 94% 29.86 in 6.2 mi SW 10.4 mph - N/A   Scattered Clouds
8:00 AM 68 °F 66 °F 92% 29.86 in 6 mi SW 10.4 mph - -   Partly Cloudy
8:20 AM 68.0 °F 66.2 °F 94% 29.86 in 6.2 mi SSW 13.8 mph - N/A   Scattered Clouds
8:50 AM 69.8 °F 66.2 °F 88% 29.86 in 6.2 mi South 13.8 mph - N/A   Scattered Clouds
9:20 AM 69.8 °F 66.2 °F 88% 29.86 in 6.2 mi South 13.8 mph - N/A   Scattered Clouds
9:50 AM 69.8 °F 66.2 °F 88% 29.86 in 6.2 mi SSW 13.8 mph - N/A   Scattered Clouds
10:20 AM 71.6 °F 66.2 °F 83% 29.86 in 6.2 mi SSW 15.0 mph - N/A   Scattered Clouds
10:50 AM 71.6 °F 64.4 °F 78% 29.89 in 6.2 mi SSW 15.0 mph - N/A   Scattered Clouds
11:20 AM 71.6 °F 64.4 °F 78% 29.89 in 6.2 mi SSW 15.0 mph - N/A   Scattered Clouds
11:50 AM 71.6 °F 64.4 °F 78% 29.86 in 6.2 mi SSW 16.1 mph - N/A   Scattered Clouds
12:20 PM 71.6 °F 64.4 °F 78% 29.86 in 6.2 mi SSW 13.8 mph - N/A   Scattered Clouds
12:50 PM 73.4 °F 62.6 °F 69% 29.86 in 6.2 mi SSW 12.7 mph 24.2 mph N/A   Scattered Clouds
1:20 PM 73.4 °F 62.6 °F 69% 29.86 in 6.2 mi South 12.7 mph - N/A   Scattered Clouds
1:50 PM 73.4 °F 64.4 °F 73% 29.89 in 6.2 mi South 11.5 mph - N/A   Scattered Clouds
2:00 PM 73 °F 65 °F 70% 29.89 in 6 mi South 11.5 mph - -   Partly Cloudy
2:20 PM 73.4 °F 64.4 °F 73% 29.89 in 6.2 mi South 10.4 mph - N/A   Scattered Clouds
2:50 PM 73.4 °F 66.2 °F 78% 29.89 in 6.2 mi SSW 10.4 mph - N/A   Scattered Clouds
3:20 PM 73.4 °F 66.2 °F 78% 29.89 in 6.2 mi SW 5.8 mph - N/A   Mostly Cloudy
4:20 PM 71.6 °F 66.2 °F 83% 29.89 in 6.2 mi SW 8.1 mph - N/A   Mostly Cloudy
4:50 PM 71.6 °F 66.2 °F 83% 29.89 in 6.2 mi SSW 5.8 mph - N/A   Mostly Cloudy
5:20 PM 71.6 °F 66.2 °F 83% 29.89 in 6.2 mi Calm Calm - N/A   Mostly Cloudy
5:50 PM 68.0 °F 62.6 °F 83% 29.89 in 6.2 mi ENE 9.2 mph - N/A   Mostly Cloudy
6:20 PM 68.0 °F 62.6 °F 83% 29.92 in 6.2 mi NE 6.9 mph - N/A   Mostly Cloudy
6:50 PM 66.2 °F 59.0 °F 78% 29.92 in 6.2 mi NE 6.9 mph - N/A   Mostly Cloudy
7:20 PM 66.2 °F 59.0 °F 78% 29.92 in 6.2 mi NE 6.9 mph - N/A   Mostly Cloudy
7:50 PM 66.2 °F 55.4 °F 68% 29.92 in 6.2 mi NE 5.8 mph - N/A   Mostly Cloudy
8:00 PM 66 °F 56 °F 62% 29.94 in 6 mi NE 5.8 mph - -   Partly Cloudy
8:20 PM 66.2 °F 55.4 °F 68% 29.92 in 6.2 mi NNE 6.9 mph - N/A   Mostly Cloudy
8:50 PM 66.2 °F 55.4 °F 68% 29.95 in 6.2 mi ENE 8.1 mph - N/A   Mostly Cloudy
9:20 PM 64.4 °F 55.4 °F 73% 29.95 in 6.2 mi ENE 6.9 mph - N/A   Mostly Cloudy
9:50 PM 64.4 °F 55.4 °F 73% 29.95 in 6.2 mi East 6.9 mph - N/A   Mostly Cloudy
10:20 PM 64.4 °F 55.4 °F 73% 29.95 in 6.2 mi East 6.9 mph - N/A   Mostly Cloudy
10:50 PM 64.4 °F 55.4 °F 73% 29.95 in 6.2 mi East 6.9 mph - N/A   Mostly Cloudy
11:20 PM 64.4 °F 55.4 °F 73% 29.95 in 6.2 mi East 6.9 mph - N/A   Mostly Cloudy
11:50 PM 64.4 °F 55.4 °F 73% 29.95 in 6.2 mi ENE 11.5 mph - N/A   Mostly Cloudy